Temperature
19 19 19 19 19 19 19 19 19 19 19 19 19 19 19 19 19 19 19 18 18 18 18 18 18 18 18 17 17 17 17 17 17 17 17 17 17 17 16 16 16 16 16
19 19 19 19 19 19 19 19 19 19 19 19 19 19 19 19 19 19 19 19 18 18 18 18 18 18 18 17 17 17 17 17 17 17 17 17 16 16 16 16 16 16 16
19 19 19 19 19 19 19 19 19 19 19 19 19 19 19 19 19 19 19 19 18 18 18 18 18 18 18 18 17 17 17 17 17 17 17 17 17 16 16 16 16 16 16
19 19 19 19 19 19 19 19 19 19 19 19 19 19 19 19 19 19 19 19 19 18 18 18 18 18 18 18 18 17 17 17 17 17 17 17 17 16 16 16 16 16 16
19 19 19 19 19 19 19 19 19 19 19 19 19 19 19 19 19 19 19 19 19 18 18 18 18 18 18 18 18 17 17 17 17 17 17 17 17 16 16 16 16 16 16
19 19 19 19 19 19 19 19 19 19 19 19 19 19 19 19 19 19 19 19 18 18 18 18 18 18 18 18 18 17 17 17 17 17 17 17 17 16 16 16 16 16 16
19 19 19 19 19 19 19 19 19 19 19 19 19 19 19 19 19 19 19 18 18 18 18 18 18 18 18 18 18 17 17 17 17 17 17 17 16 16 16 16 16 16 16
19 19 19 19 19 19 19 19 19 19 19 19 19 19 18 19 19 19 18 18 18 18 18 18 18 18 17 17 17 17 17 17 17 17 17 17 17 16 16 16 16 16 16
19 19 19 19 19 19 19 19 19 19 19 19 18 18 18 18 18 18 18 18 18 18 18 18 18 17 17 17 17 17 17 17 17 17 17 17 17 16 16 16 16 16 16
19 19 19 19 19 19 19 19 18 18 19 18 18 18 18 18 18 18 18 18 18 18 18 17 17 17 17 17 17 17 17 17 16 16 16 16 16 16 16 16 16 16 16
19 18 18 18 19 19 19 18 18 18 18 18 18 18 18 18 18 18 17 18 18 18 18 17 17 17 17 17 17 17 17 16 16 16 16 16 16 16 16 16 16 16 16
18 18 18 18 18 18 18 18 18 18 18 18 18 18 18 18 18 18 17 17 18 18 17 17 17 17 17 17 17 16 16 16 16 16 16 16 16 16 16 16 16 16 15
18 18 18 18 18 18 18 18 18 18 18 18 18 18 18 18 18 18 17 17 17 17 17 17 17 17 17 17 17 16 16 16 16 16 16 16 16 16 16 16 16 16 15
18 18 18 18 18 18 18 18 18 18 17 17 17 17 17 17 17 17 17 17 17 17 17 17 17 17 17 17 16 16 16 16 16 16 16 16 16 16 16 16 15 15 15
18 18 18 18 18 18 17 17 17 17 17 17 17 17 17 17 17 17 17 17 17 17 17 17 17 17 16 16 16 16 16 16 16 16 16 16 16 16 15 15 15 15 15
18 18 18 17 17 17 17 17 17 17 17 17 17 17 17 17 17 17 17 17 17 17 16 16 16 16 16 16 16 16 15 15 15 15 15 15 15 15 15 15 15 15 15
18 17 17 17 17 17 17 17 17 17 17 17 17 17 17 17 17 17 17 17 16 16 16 16 16 16 16 16 16 16 15 15 15 15 15 15 15 15 15 15 15 15 15
17 17 17 17 17 17 17 17 17 17 17 17 16 16 16 16 16 16 16 16 16 16 16 16 16 16 16 15 15 15 15 15 15 15 15 15 15 15 15 14 14 14 14
17 17 17 17 17 17 17 17 17 17 16 16 16 16 16 16 16 16 16 16 16 16 15 15 15 15 15 15 15 15 15 15 15 15 15 15 14 14 14 14 14 14 14
17 17 17 17 17 17 16 16 16 16 16 16 16 16 16 16 16 16 16 15 15 15 15 15 15 15 15 15 15 15 14 15 14 14 14 14 14 14 14 14 14 14 14
17 17 17 17 17 16 16 16 16 16 16 16 16 16 16 16 15 15 15 15 15 15 15 15 14 14 14 14 14 14 14 14 14 14 14 14 14 14 14 14 14 14 13
16 16 16 16 16 16 16 16 16 16 16 16 16 16 16 15 15 15 15 15 14 14 14 14 14 14 14 14 14 14 14 14 13 14 14 14 14 14 14 14 14 13 13
16 16 16 16 16 16 16 16 16 16 15 15 15 15 15 15 15 15 15 14 14 14 14 14 14 14 14 14 14 13 13 13 13 13 13 13 13 13 13 13 13 13 13
16 16 16 16 16 16 15 15 15 15 15 15 15 15 15 15 14 14 14 14 14 14 14 13 13 13 13 13 13 13 13 13 13 13 13 13 13 13 13 13 13 13 13
16 16 16 15 15 15 15 15 15 15 15 15 15 14 14 14 14 14 14 14 14 14 13 13 13 13 13 13 13 13 13 13 13 13 12 12 12 13 13 13 13 13 13
15 15 15 15 15 15 15 15 15 15 15 14 14 14 14 14 14 14 14 13 13 13 13 13 13 13 12 12 12 12 12 12 12 12 12 12 12 12 12 12 12 12 12
Wind_Speed
3 3 2 3 4 5 4 3 3 4 4 4 4 4 4 5 7 8 9 13 14 14 13 13 13 12 12 11 11 11 10 10 9 9 9 9 8 8 8 8 8 8 8
3 3 2 2 3 4 4 4 4 3 3 2 3 3 4 5 6 8 9 11 12 13 13 13 13 12 12 12 11 10 10 9 9 9 9 9 9 9 8 8 8 8 8
4 3 2 2 2 3 3 3 2 2 2 1 2 2 3 4 5 6 8 8 9 11 12 12 12 12 12 11 11 11 10 10 9 9 8 9 9 9 9 9 8 9 9
5 3 2 2 2 1 1 1 1 0 1 0 1 1 2 3 4 6 7 8 8 7 9 11 12 12 11 11 11 11 10 10 10 9 9 9 9 9 10 10 9 9 9
5 4 2 1 2 1 0 1 0 1 0 1 1 0 1 2 3 4 5 6 7 7 7 9 11 12 11 11 11 11 10 10 9 9 9 9 9 9 9 9 10 10 10
4 3 2 1 1 1 0 0 1 0 1 0 0 1 1 1 2 3 4 4 5 7 7 8 8 9 10 11 11 10 10 9 9 9 9 9 9 8 8 8 8 9 10
3 3 1 1 1 1 1 1 1 1 1 0 2 2 3 2 1 2 3 3 3 5 6 6 7 6 6 9 11 11 10 10 9 9 9 8 8 9 9 8 8 8 9
2 3 2 1 1 1 1 1 1 1 0 1 2 2 2 4 3 1 1 2 3 3 4 6 7 8 7 7 9 11 11 10 9 9 8 7 7 8 8 8 8 8 8
2 2 3 2 1 1 1 1 1 2 1 1 1 3 2 2 2 2 1 1 2 2 3 4 6 7 7 6 7 8 10 10 9 8 8 8 8 8 8 8 7 7 7
2 2 2 2 2 1 1 1 1 1 2 0 1 1 2 3 2 1 3 1 1 2 3 3 4 5 7 7 7 8 9 9 9 8 8 8 9 9 9 8 8 7 7
1 1 2 2 1 1 1 1 0 1 1 2 1 1 0 0 1 2 2 2 2 2 2 3 3 4 6 7 7 8 9 9 8 8 8 9 9 9 9 8 8 7 7
1 1 1 1 2 1 1 1 1 1 1 1 1 1 2 1 2 2 3 2 2 2 1 1 2 3 5 6 6 8 9 9 9 8 7 8 9 9 8 8 7 7 7
1 1 1 1 1 1 2 1 1 1 1 1 1 1 1 2 2 2 2 2 2 2 1 1 1 3 4 5 6 8 9 10 9 8 7 6 6 8 8 8 7 7 6
2 2 1 1 1 1 1 1 0 1 1 1 1 1 1 1 1 2 3 2 0 2 1 2 1 2 3 5 6 8 7 9 9 8 8 7 6 6 7 7 8 7 7
2 2 2 2 1 1 1 1 1 1 1 1 1 1 1 1 1 1 2 3 3 2 2 3 2 2 2 4 5 6 6 8 9 8 8 8 7 7 6 6 7 7 7
2 2 2 2 1 1 1 1 0 1 0 1 1 0 1 1 1 0 1 1 2 3 3 3 3 2 2 3 5 5 6 7 9 9 9 9 8 8 7 7 6 6 6
2 2 2 2 2 1 1 1 1 0 0 1 1 0 1 1 0 1 1 1 1 2 2 2 2 1 1 1 2 4 5 5 7 10 10 10 9 9 9 8 7 7 7
2 3 2 2 2 2 2 2 2 1 1 1 1 1 1 1 0 0 1 1 1 2 3 2 1 1 2 2 2 2 3 4 6 8 10 11 10 10 10 10 9 8 8
2 2 2 3 3 2 2 3 3 2 2 2 2 1 1 1 0 0 0 1 1 0 1 2 1 1 1 1 1 2 2 2 4 6 9 10 10 10 11 11 11 10 9
3 3 2 3 3 2 2 2 2 2 1 1 2 2 1 2 2 2 1 1 1 0 1 1 0 1 1 1 0 1 2 2 2 3 4 6 8 9 10 11 11 11 10
3 2 2 2 2 2 1 2 2 2 2 2 1 1 1 1 2 1 1 2 1 1 1 1 0 1 1 1 1 1 2 2 2 1 1 2 3 5 7 10 11 12 12
1 1 2 2 1 1 1 2 2 2 2 2 2 1 1 1 1 0 1 2 3 3 2 2 1 2 3 2 2 1 1 1 2 2 1 3 2 4 5 8 10 12 13
2 1 2 2 2 2 1 1 1 2 2 2 2 2 1 0 0 0 1 1 1 2 4 4 3 4 3 4 2 2 2 2 3 3 1 3 2 4 5 7 10 11 12
2 2 2 2 2 2 2 2 2 1 1 1 2 2 2 1 1 1 0 1 1 2 3 3 4 5 5 4 4 4 4 2 2 2 1 2 3 3 4 4 7 9 10
1 1 2 2 2 2 2 2 2 1 1 1 1 1 1 1 2 0 1 1 2 3 4 3 4 5 5 4 3 1 1 1 2 3 1 2 2 2 2 3 4 7 9
1 1 1 1 2 1 1 1 3 2 1 0 0 1 1 0 0 1 2 2 2 4 3 3 4 4 4 4 3 3 4 3 2 2 3 2 1 0 2 2 2 2 4
Wind_Direction
179 179 180 191 204 209 211 217 226 232 239 241 234 210 200 192 184 182 187 191 192 195 198 198 197 197 196 195 196 197 200 202 202 201 201 203 204 205 208 208 207 211 212
173 174 180 190 208 212 213 212 223 226 233 210 225 204 190 182 184 184 185 190 194 198 201 199 198 196 197 198 198 200 201 204 205 206 206 206 205 206 210 211 210 211 213
175 171 177 196 216 222 212 212 223 213 217 215 215 204 181 181 184 185 183 187 194 200 202 204 200 198 200 200 202 204 204 206 207 205 206 207 206 207 210 213 213 211 212
170 162 161 187 204 204 191 193 196 183 286 251 233 226 184 175 182 187 185 188 192 197 202 204 203 202 204 205 205 206 206 206 206 206 209 209 208 209 212 214 214 214 214
168 157 163 189 180 145 140 213 137 155 224 268 237 203 202 192 189 188 187 195 193 192 197 201 202 204 207 208 209 209 206 207 203 205 211 212 212 210 214 216 217 217 216
166 159 165 181 144 123 81 74 139 119 183 246 40 30 351 216 184 184 189 188 192 197 200 198 196 205 210 212 211 206 207 211 209 210 214 216 217 216 217 219 220 221 219
159 157 157 158 142 154 184 149 144 83 345 53 60 18 359 352 223 196 183 172 185 197 196 196 191 194 206 217 211 205 208 216 214 215 215 217 221 219 218 220 223 222 222
157 153 144 161 175 151 102 74 101 95 316 98 119 88 6 351 343 303 180 176 183 191 200 199 193 194 197 201 205 207 206 213 215 214 214 214 219 218 216 219 221 222 224
149 131 142 144 156 144 158 178 141 144 189 288 142 138 147 228 306 331 281 188 177 188 201 195 197 197 196 193 199 209 210 210 212 213 214 214 219 219 215 218 221 226 230
133 142 136 143 148 139 161 208 164 158 142 219 279 223 174 165 161 302 325 316 229 204 197 196 186 191 192 193 202 203 206 207 208 211 215 217 222 220 216 217 221 227 229
159 145 138 141 155 166 188 196 133 141 152 167 188 225 251 118 148 168 262 305 317 264 219 203 185 190 196 197 204 208 202 204 211 214 220 220 219 216 216 217 220 224 224
227 210 145 157 172 184 196 201 200 180 191 181 181 163 163 172 205 183 215 246 264 278 266 219 189 194 197 198 209 207 198 201 207 209 217 220 217 213 213 214 219 221 223
201 245 214 196 199 205 198 190 170 232 206 192 207 210 199 206 192 181 179 219 249 283 301 270 224 194 200 203 211 206 201 204 205 206 211 216 216 213 211 213 217 220 222
201 206 207 206 206 186 193 171 170 243 213 215 231 206 205 240 193 180 173 163 202 314 314 276 272 218 212 201 210 205 213 213 209 210 210 209 205 206 210 214 217 220 221
198 203 205 203 217 204 196 162 165 247 241 235 242 224 223 265 227 198 165 158 159 204 260 264 261 251 220 203 205 209 218 220 213 209 206 206 206 205 205 208 215 219 221
201 174 179 183 192 204 192 149 159 264 233 271 241 238 292 291 290 273 158 150 152 169 220 250 247 258 219 206 209 208 222 221 215 210 210 209 209 207 206 205 208 214 216
179 171 176 176 181 187 187 165 202 53 198 274 288 269 280 287 4 342 101 120 143 154 190 262 269 296 236 233 205 213 220 216 222 216 214 214 212 212 211 208 207 211 216
188 190 180 175 190 196 198 195 210 228 214 237 258 253 265 276 313 8 85 146 172 171 171 220 282 303 262 245 232 220 223 226 225 222 219 219 219 219 217 215 211 214 220
199 189 172 185 201 207 209 213 212 220 214 220 218 209 235 186 228 237 166 178 225 213 154 173 243 270 286 299 306 279 257 250 233 234 226 225 225 224 224 223 219 220 225
213 206 191 193 202 203 209 218 196 191 205 222 209 195 198 182 195 194 166 200 193 113 126 144 226 295 298 302 46 292 300 281 261 246 228 232 234 231 231 230 228 228 229
216 204 186 188 201 196 214 206 199 200 213 236 243 214 190 150 144 159 173 188 167 146 142 137 223 335 312 323 273 252 259 283 285 255 230 241 231 233 233 235 236 235 232
215 187 178 172 183 220 248 197 188 203 206 211 228 250 234 97 88 120 136 164 169 169 179 182 207 221 245 243 249 251 243 303 290 287 211 262 224 241 239 230 238 236 234
204 205 196 182 192 228 220 204 197 186 212 211 207 212 223 247 179 200 318 340 286 220 189 184 203 225 229 232 215 236 231 220 247 262 219 267 253 252 251 244 240 236 232
200 202 198 200 199 223 216 215 204 179 201 231 215 193 189 223 249 211 200 339 302 279 243 216 215 230 233 228 212 216 222 238 276 279 195 240 263 258 261 253 247 234 229
205 212 192 191 198 247 236 220 151 131 135 250 228 173 178 213 275 292 138 251 293 294 289 277 260 252 249 240 207 166 176 165 278 278 236 206 253 268 274 269 256 239 235
196 183 143 175 178 238 257 172 144 145 160 231 339 319 295 303 303 140 176 204 252 271 293 309 305 300 278 271 246 204 197 195 219 262 250 206 238 257 306 287 275 269 248
Height
1528 1529 1530 1530 1531 1531 1532 1532 1532 1532 1531 1531 1531 1530 1530 1530 1531 1532 1533 1533 1534 1534 1535 1535 1536 1536 1537 1537 1537 1538 1539 1539 1540 1540 1541 1542 1542 1543 1544 1545 1545 1546 1547
1529 1529 1530 1530 1531 1531 1532 1532 1532 1531 1531 1531 1531 1530 1530 1530 1531 1532 1532 1533 1533 1533 1534 1534 1535 1535 1536 1536 1536 1537 1537 1538 1539 1539 1540 1541 1541 1542 1543 1543 1544 1545 1545
1529 1529 1530 1530 1531 1531 1531 1531 1531 1531 1531 1531 1530 1530 1530 1530 1531 1531 1532 1532 1532 1533 1533 1533 1533 1534 1534 1535 1536 1536 1536 1537 1538 1538 1539 1540 1540 1541 1541 1542 1542 1543 1544
1529 1529 1530 1530 1531 1531 1531 1531 1531 1531 1530 1530 1530 1530 1530 1530 1530 1531 1531 1531 1531 1532 1532 1532 1533 1533 1533 1534 1534 1535 1535 1536 1536 1537 1538 1538 1539 1539 1540 1540 1541 1541 1542
1529 1529 1530 1530 1530 1530 1531 1531 1531 1530 1530 1530 1529 1529 1529 1529 1529 1530 1530 1530 1531 1531 1531 1531 1532 1532 1532 1533 1533 1533 1534 1534 1535 1536 1536 1537 1537 1537 1538 1538 1539 1539 1540
1528 1529 1529 1529 1529 1530 1530 1530 1530 1530 1530 1529 1529 1528 1529 1529 1529 1529 1529 1530 1530 1530 1531 1531 1530 1530 1531 1531 1532 1532 1532 1532 1533 1534 1535 1535 1535 1536 1536 1536 1537 1537 1537
1528 1528 1528 1528 1529 1529 1529 1529 1529 1529 1529 1529 1528 1528 1528 1529 1528 1529 1529 1529 1529 1529 1530 1530 1529 1529 1529 1530 1530 1530 1530 1530 1531 1532 1533 1533 1533 1533 1534 1534 1534 1535 1535
1527 1527 1527 1527 1528 1528 1528 1528 1528 1528 1528 1528 1528 1527 1528 1529 1528 1528 1528 1528 1528 1528 1528 1528 1528 1528 1528 1528 1528 1528 1528 1529 1529 1530 1530 1531 1531 1531 1531 1531 1532 1531 1531
1526 1526 1526 1527 1527 1527 1527 1527 1527 1527 1527 1527 1527 1528 1527 1527 1527 1527 1527 1527 1527 1527 1527 1527 1527 1527 1527 1527 1527 1527 1527 1527 1527 1528 1528 1528 1528 1528 1528 1528 1528 1527 1526
1525 1525 1525 1526 1526 1526 1526 1526 1526 1526 1526 1526 1526 1526 1527 1526 1526 1526 1526 1526 1526 1526 1526 1525 1525 1525 1525 1525 1525 1525 1525 1525 1525 1526 1526 1526 1525 1526 1525 1525 1525 1524 1522
1524 1524 1524 1524 1524 1524 1524 1524 1524 1525 1525 1525 1525 1525 1525 1525 1525 1525 1524 1524 1525 1525 1524 1524 1524 1524 1524 1523 1523 1523 1523 1523 1523 1523 1523 1523 1523 1523 1523 1522 1522 1521 1520
1522 1523 1523 1523 1523 1523 1523 1523 1523 1523 1523 1523 1523 1523 1523 1523 1523 1523 1523 1522 1522 1523 1523 1522 1522 1522 1521 1521 1521 1521 1521 1521 1521 1521 1521 1521 1521 1520 1520 1520 1519 1519 1518
1521 1521 1521 1521 1521 1521 1521 1521 1521 1521 1521 1521 1521 1521 1521 1521 1522 1522 1521 1521 1520 1521 1521 1520 1520 1520 1520 1519 1518 1518 1519 1519 1519 1519 1518 1518 1518 1518 1517 1517 1517 1517 1516
1520 1520 1520 1520 1520 1520 1520 1520 1520 1520 1519 1519 1519 1519 1519 1519 1520 1519 1519 1519 1518 1518 1518 1518 1518 1518 1517 1517 1517 1517 1517 1517 1517 1516 1516 1516 1516 1516 1515 1515 1515 1515 1515
1518 1518 1518 1518 1518 1518 1518 1518 1518 1518 1518 1517 1517 1517 1517 1517 1517 1517 1517 1517 1518 1516 1516 1516 1516 1515 1515 1515 1515 1514 1515 1515 1515 1514 1514 1514 1514 1513 1513 1513 1513 1513 1513
1516 1516 1516 1516 1516 1517 1517 1517 1516 1516 1516 1516 1516 1515 1515 1515 1515 1515 1515 1515 1515 1515 1514 1513 1513 1513 1513 1513 1513 1513 1513 1512 1512 1512 1512 1512 1511 1511 1511 1511 1511 1511 1511
1514 1514 1514 1514 1515 1515 1515 1515 1514 1514 1514 1514 1513 1513 1513 1513 1513 1513 1512 1512 1512 1512 1511 1511 1511 1511 1510 1510 1510 1510 1510 1510 1510 1509 1509 1509 1509 1509 1509 1509 1509 1509 1509
1512 1512 1513 1512 1513 1513 1513 1512 1512 1511 1511 1511 1511 1511 1510 1511 1510 1510 1510 1509 1509 1509 1509 1508 1508 1508 1508 1508 1508 1508 1508 1507 1507 1507 1507 1507 1507 1507 1507 1507 1507 1507 1507
1510 1510 1510 1510 1510 1510 1510 1510 1510 1509 1509 1509 1509 1509 1508 1508 1507 1507 1507 1507 1507 1507 1506 1506 1506 1505 1505 1505 1505 1505 1504 1504 1504 1504 1504 1504 1504 1504 1504 1504 1504 1504 1504
1508 1508 1507 1508 1508 1508 1508 1508 1508 1507 1507 1507 1507 1506 1506 1506 1505 1505 1505 1504 1504 1504 1504 1503 1503 1503 1502 1502 1502 1502 1501 1502 1501 1501 1501 1501 1501 1501 1501 1501 1501 1501 1501
1504 1505 1505 1505 1505 1505 1505 1505 1505 1505 1505 1505 1504 1504 1504 1503 1503 1502 1502 1502 1502 1501 1501 1500 1500 1500 1499 1499 1499 1499 1498 1498 1498 1498 1497 1497 1497 1497 1497 1497 1497 1497 1497
1502 1502 1502 1502 1502 1502 1503 1503 1503 1502 1503 1502 1502 1501 1501 1501 1501 1500 1500 1499 1499 1499 1498 1498 1497 1497 1497 1497 1496 1496 1495 1495 1494 1495 1494 1494 1494 1493 1493 1493 1493 1493 1493
1500 1500 1500 1500 1499 1500 1500 1500 1500 1500 1500 1499 1499 1499 1499 1499 1498 1498 1497 1497 1496 1496 1496 1495 1495 1494 1494 1494 1493 1493 1492 1492 1491 1491 1491 1490 1490 1489 1490 1489 1489 1489 1490
1498 1498 1498 1497 1497 1497 1497 1497 1497 1497 1497 1497 1497 1496 1496 1496 1496 1496 1495 1494 1494 1493 1493 1492 1492 1491 1491 1491 1491 1491 1490 1489 1489 1488 1488 1487 1486 1486 1486 1486 1486 1486 1486
1496 1496 1495 1495 1495 1495 1495 1495 1495 1495 1495 1495 1494 1493 1494 1493 1493 1493 1492 1492 1491 1491 1491 1490 1490 1489 1489 1488 1488 1488 1487 1486 1485 1485 1485 1484 1483 1482 1482 1482 1482 1482 1482
1494 1494 1494 1493 1493 1492 1493 1493 1493 1493 1492 1492 1492 1492 1491 1491 1491 1490 1489 1489 1488 1488 1488 1487 1487 1486 1486 1485 1485 1485 1484 1483 1482 1482 1481 1481 1480 1479 1478 1478 1478 1478 1477